This is the latest recevied weather packets stored in our database for station/object OK1FPA-15. If no packets are shown the sender has not sent any weather packets the latest 10 day(s).
| Time | Temp. | Humidity | Pressure | Rain* | Wind** | Luminosity | Snow |
|---|---|---|---|---|---|---|---|
| 1777510046 | -1.11° C | 65% | 1032.8 hPa | - | - | - | - |
| 1777509446 | -1.11° C | 65% | 1032.8 hPa | - | - | - | - |
| 1777508846 | -1.11° C | 65% | 1032.8 hPa | - | - | - | - |
| 1777508246 | -1.11° C | 64% | 1032.9 hPa | - | - | - | - |
| 1777507646 | -1.11° C | 64% | 1032.8 hPa | - | - | - | - |
| 1777507050 | -0.56° C | 63% | 1032.9 hPa | - | - | - | - |
| 1777506449 | -0.56° C | 63% | 1032.9 hPa | - | - | - | - |
| 1777505844 | -0.56° C | 63% | 1033 hPa | - | - | - | - |
| 1777505244 | -0.56° C | 61% | 1033 hPa | - | - | - | - |
| 1777504644 | 0° C | 61% | 1033 hPa | - | - | - | - |
| 1777504044 | 0° C | 62% | 1032.9 hPa | - | - | - | - |
| 1777503444 | 0° C | 61% | 1033 hPa | - | - | - | - |
| 1777502844 | 0.56° C | 59% | 1032.8 hPa | - | - | - | - |
| 1777502245 | 0.56° C | 58% | 1032.9 hPa | - | - | - | - |
| 1777501644 | 0.56° C | 58% | 1032.8 hPa | - | - | - | - |
| 1777501044 | 1.11° C | 57% | 1032.6 hPa | - | - | - | - |
| 1777500444 | 1.11° C | 57% | 1032.5 hPa | - | - | - | - |
| 1777499844 | 1.11° C | 57% | 1032.4 hPa | - | - | - | - |
| 1777499244 | 1.67° C | 56% | 1032.3 hPa | - | - | - | - |
| 1777498644 | 1.67° C | 55% | 1032.1 hPa | - | - | - | - |
| 1777498044 | 2.22° C | 54% | 1032.1 hPa | - | - | - | - |
| 1777497444 | 2.22° C | 53% | 1032 hPa | - | - | - | - |
| 1777496845 | 2.78° C | 53% | 1032 hPa | - | - | - | - |
| 1777496245 | 2.78° C | 52% | 1031.8 hPa | - | - | - | - |
| 1777495645 | 3.33° C | 51% | 1031.7 hPa | - | - | - | - |
* Rain since midnight (hover to see other rain measurements)
** Current wind speed in m/s (hover to see current wind gust speed)